EW7966 Weather Reports


time (UTC)temp
C
wind
direction
speed
KPH
gust
KPH
rain 1hr
cm
rain 24hr
cm
rain mn
cm
humidity
%
barometer
mb
20260906000008 28 164 8.0 12.9 0.00 0.00 0.00 27 1018.2
20260906000004 28 164 8.0 12.9 0.00 0.00 0.00 27 1000.7
20260905235507 28 169 6.4 11.3 0.00 0.00 0.00 27 1018.2
20260905235006 28 163 8.0 11.3 0.00 0.00 0.00 27 1018.2
20260905234506 28 168 4.8 9.7 0.00 0.00 0.00 27 1018.1
20260905234504 28 168 4.8 9.7 0.00 0.00 0.00 27 1000.6
20260905234006 28 194 6.4 12.9 0.00 0.00 0.00 26 1018.2
20260905233506 29 153 8.0 16.1 0.00 0.00 0.00 25 1018.0
20260905233006 28 157 8.0 12.9 0.00 0.00 0.00 25 1018.1
20260905233003 28 157 8.0 12.9 0.00 0.00 0.00 25 1000.6
20260905232505 28 165 8.0 12.9 0.00 0.00 0.00 27 1018.0
20260905232001 28 144 6.4 12.9 0.00 0.00 0.00 26 1018.1
20260905231505 28 163 9.7 16.1 0.00 0.00 0.00 27 1018.1
20260905231006 28 165 9.7 16.1 0.00 0.00 0.00 28 1018.1
20260905230110 28 163 6.4 16.1 0.00 0.00 0.00 27 1000.7
20260905225505 28 188 8.0 16.1 0.00 0.00 0.00 27 1018.2
20260905224505 28 167 11.3 17.7 0.00 0.00 0.00 27 1000.7
20260905224006 28 171 8.0 11.3 0.00 0.00 0.00 27 1018.2
20260905223505 28 153 8.0 12.9 0.00 0.00 0.00 26 1018.1
20260905223008 28 149 6.4 16.1 0.00 0.00 0.00 25 1018.1
20260905223004 28 149 6.4 16.1 0.00 0.00 0.00 25 1000.6
20260905222006 29 161 12.9 19.3 0.00 0.00 0.00 25 1018.2
20260905221506 29 151 12.9 17.7 0.00 0.00 0.00 26 1018.2
20260905221504 29 151 11.3 17.7 0.00 0.00 0.00 26 1000.7
20260905221005 28 125 14.5 17.7 0.00 0.00 0.00 26 1018.2
20260905220458 28 108 11.3 16.1 0.00 0.00 0.00 25 1018.2
20260905220004 28 147 8.0 12.9 0.00 0.00 0.00 26 1000.8
20260905215505 28 117 3.2 6.4 0.00 0.00 0.00 26 1018.2
20260905214508 28 150 3.2 8.0 0.00 0.00 0.00 24 1018.3
20260905214503 28 150 3.2 8.0 0.00 0.00 0.00 24 1000.8
20260905213007 28 129 9.7 16.1 0.00 0.00 0.00 25 1018.4
20260905213003 28 129 9.7 16.1 0.00 0.00 0.00 25 1000.9
20260905212505 28 113 8.0 12.9 0.00 0.00 0.00 26 1018.3
20260905212006 28 93 1.6 9.7 0.00 0.00 0.00 25 1018.4
20260905211603 28 86 6.4 9.7 0.00 0.00 0.00 25 1001.0
20260905211458 28 71 4.8 12.9 0.00 0.00 0.00 25 1018.5
20260905211005 28 68 3.2 16.1 0.00 0.00 0.00 24 1018.5
20260905210506 28 85 9.7 16.1 0.00 0.00 0.00 24 1018.6
20260905210006 28 106 9.7 16.1 0.00 0.00 0.00 24 1018.6
20260905210004 28 106 8.0 16.1 0.00 0.00 0.00 24 1001.1
20260905205006 29 346 8.0 20.9 0.00 0.00 0.00 24 1018.7
20260905204504 30 88 6.4 20.9 0.00 0.00 0.00 24 1001.3
20260905204006 30 45 6.4 19.3 0.00 0.00 0.00 24 1018.7
20260905203505 29 57 11.3 19.3 0.00 0.00 0.00 25 1018.9
20260905203004 29 101 6.4 22.5 0.00 0.00 0.00 24 1001.5
20260905202506 30 59 16.1 22.5 0.00 0.00 0.00 24 1019.0
20260905202006 30 36 4.8 22.5 0.00 0.00 0.00 26 1019.0
20260905201505 30 73 6.4 17.7 0.00 0.00 0.00 24 1019.1
20260905201503 30 73 6.4 17.7 0.00 0.00 0.00 24 1001.7
20260905201009 30 59 6.4 17.7 0.00 0.00 0.00 25 1019.1
20260905200505 29 355 6.4 14.5 0.00 0.00 0.00 25 1019.2
20260905200007 29 48 6.4 20.9 0.00 0.00 0.00 24 1001.8
20260905195505 30 67 14.5 20.9 0.00 0.00 0.00 24 1019.4
20260905195006 30 39 9.7 19.3 0.00 0.00 0.00 24 1019.4
20260905194507 30 355 6.4 19.3 0.00 0.00 0.00 25 1019.4
20260905194504 30 355 6.4 19.3 0.00 0.00 0.00 25 1002.0
20260905194005 30 322 6.4 17.7 0.00 0.00 0.00 23 1019.4
20260905193506 30 330 8.0 20.9 0.00 0.00 0.00 24 1019.5
20260905193006 30 333 9.7 20.9 0.00 0.00 0.00 25 1019.6
20260905193004 30 333 8.0 20.9 0.00 0.00 0.00 25 1002.2
20260905192506 30 331 9.7 22.5 0.00 0.00 0.00 24 1019.5
20260905192006 29 341 6.4 24.1 0.00 0.00 0.00 26 1019.6
20260905191503 28 348 11.3 24.1 0.00 0.00 0.00 25 1002.1
20260905191006 28 29 16.1 24.1 0.00 0.00 0.00 24 1019.7
20260905190008 29 350 11.3 22.5 0.00 0.00 0.00 25 1019.7
20260905190004 29 350 11.3 22.5 0.00 0.00 0.00 25 1002.3
20260905185506 28 355 8.0 24.1 0.00 0.00 0.00 26 1019.8
20260905184505 28 22 11.3 22.5 0.00 0.00 0.00 25 1002.5
20260905184007 28 37 14.5 24.1 0.00 0.00 0.00 24 1019.9
20260905183506 28 18 17.7 25.7 0.00 0.00 0.00 26 1019.9
20260905183007 28 26 12.9 25.7 0.00 0.00 0.00 25 1020.0
20260905183003 28 31 11.3 25.7 0.00 0.00 0.00 25 1002.6
20260905182505 28 5 4.8 20.9 0.00 0.00 0.00 26 1020.1
20260905182006 28 355 9.7 27.4 0.00 0.00 0.00 26 1020.2
20260905181505 27 5 11.3 27.4 0.00 0.00 0.00 26 1020.1
20260905181503 27 5 9.7 27.4 0.00 0.00 0.00 26 1002.7
20260905181006 27 49 17.7 30.6 0.00 0.00 0.00 25 1020.2
20260905180505 27 29 16.1 30.6 0.00 0.00 0.00 25 1020.2
20260905180004 28 17 16.1 29.0 0.00 0.00 0.00 26 1002.8
20260905175505 28 44 17.7 29.0 0.00 0.00 0.00 26 1020.3
20260905174503 27 5 14.5 25.7 0.00 0.00 0.00 27 1002.8
20260905174006 27 11 9.7 30.6 0.00 0.00 0.00 26 1020.3
20260905173505 27 21 14.5 30.6 0.00 0.00 0.00 27 1020.3
20260905173007 27 28 16.1 27.4 0.00 0.00 0.00 27 1020.4
20260905173005 27 28 16.1 27.4 0.00 0.00 0.00 27 1003.0
20260905172505 27 55 16.1 27.4 0.00 0.00 0.00 27 1020.4
20260905172007 27 336 11.3 27.4 0.00 0.00 0.00 27 1020.4
20260905171505 27 22 16.1 27.4 0.00 0.00 0.00 28 1020.5
20260905171006 27 360 8.0 24.1 0.00 0.00 0.00 29 1020.5
20260905170505 27 360 12.9 24.1 0.00 0.00 0.00 28 1020.5
20260905170007 27 10 6.4 19.3 0.00 0.00 0.00 30 1020.5
20260905170005 27 10 6.4 19.3 0.00 0.00 0.00 30 1003.0
20260905165506 27 336 9.7 24.1 0.00 0.00 0.00 30 1020.4
20260905164505 27 20 12.9 19.3 0.00 0.00 0.00 28 1020.5
20260905163505 27 25 6.4 20.9 0.00 0.00 0.00 31 1020.5
20260905163007 26 14 11.3 19.3 0.00 0.00 0.00 31 1020.4
20260905163004 26 14 11.3 19.3 0.00 0.00 0.00 31 1003.0
20260905162506 26 19 6.4 19.3 0.00 0.00 0.00 31 1020.4
20260905162007 26 27 11.3 20.9 0.00 0.00 0.00 31 1020.3
20260905161505 26 22 14.5 20.9 0.00 0.00 0.00 30 1020.3
20260905161503 26 22 12.9 20.9 0.00 0.00 0.00 30 1002.8
20260905161007 26 36 11.3 19.3 0.00 0.00 0.00 29 1020.2
20260905160007 26 327 8.0 17.7 0.00 0.00 0.00 31 1020.1
20260905160004 26 327 8.0 17.7 0.00 0.00 0.00 31 1002.6
20260905155506 26 5 8.0 17.7 0.00 0.00 0.00 33 1020.1
20260905155007 25 20 4.8 16.1 0.00 0.00 0.00 34 1020.1
20260905154506 25 314 6.4 16.1 0.00 0.00 0.00 35 1020.1
20260905154503 25 314 4.8 16.1 0.00 0.00 0.00 35 1002.6
20260905154007 25 309 9.7 16.1 0.00 0.00 0.00 35 1020.1
20260905153506 24 319 6.4 14.5 0.00 0.00 0.00 37 1020.1
20260905153008 24 318 4.8 14.5 0.00 0.00 0.00 38 1020.1
20260905153004 24 318 4.8 14.5 0.00 0.00 0.00 38 1002.6
20260905152505 23 254 9.7 16.1 0.00 0.00 0.00 38 1020.0
20260905152006 23 304 9.7 16.1 0.00 0.00 0.00 40 1020.0
20260905151505 23 313 8.0 12.9 0.00 0.00 0.00 40 1020.0
20260905151503 23 313 6.4 12.9 0.00 0.00 0.00 40 1002.5
20260905150504 23 298 11.3 19.3 0.00 0.00 0.00 40 1019.9
20260905150007 23 288 11.3 19.3 0.00 0.00 0.00 40 1019.9
20260905150004 23 288 11.3 19.3 0.00 0.00 0.00 40 1002.5
20260905145505 23 301 4.8 20.9 0.00 0.00 0.00 41 1019.9
20260905145006 22 292 9.7 20.9 0.00 0.00 0.00 41 1019.9
20260905144504 22 286 8.0 19.3 0.00 0.00 0.00 41 1002.6
20260905144006 22 297 8.0 14.5 0.00 0.00 0.00 43 1019.9
20260905143505 22 286 6.4 14.5 0.00 0.00 0.00 44 1019.9
20260905143007 21 294 6.4 12.9 0.00 0.00 0.00 46 1019.9
20260905142505 21 259 6.4 12.9 0.00 0.00 0.00 47 1019.9
20260905141506 20 265 4.8 9.7 0.00 0.00 0.00 49 1019.7
20260905141504 20 265 4.8 9.7 0.00 0.00 0.00 49 1002.5
20260905141007 20 274 4.8 9.7 0.00 0.00 0.00 51 1019.7
20260905140505 20 294 3.2 8.0 0.00 0.00 0.00 53 1019.7
20260905140009 19 226 4.8 11.3 0.00 0.00 0.00 54 1019.7
20260905140005 19 226 3.2 11.3 0.00 0.00 0.00 54 1002.4
20260905135506 18 223 3.2 11.3 0.00 0.00 0.00 58 1019.7
20260905135005 18 206 4.8 8.0 0.00 0.00 0.00 59 1019.6
20260905134557 18 236 3.2 8.0 0.00 0.00 0.00 61 1002.3
20260905134459 18 237 4.8 8.0 0.00 0.00 0.00 62 1019.6
20260905134006 17 241 3.2 8.0 0.00 0.00 0.00 63 1019.5
20260905133506 17 230 4.8 8.0 0.00 0.00 0.00 64 1019.5
20260905133006 17 218 4.8 6.4 0.00 0.00 0.00 65 1019.5
20260905133003 17 218 3.2 6.4 0.00 0.00 0.00 65 1002.2
20260905132505 17 218 1.6 3.2 0.00 0.00 0.00 66 1019.5
20260905132006 16 218 0.0 1.6 0.00 0.00 0.00 68 1019.4
20260905131609 16 218 0.0 3.2 0.00 0.00 0.00 68 1002.2
20260905131500 16 218 0.0 3.2 0.00 0.00 0.00 69 1019.4
20260905131006 16 218 0.0 4.8 0.00 0.00 0.00 69 1019.4
20260905130506 16 218 1.6 4.8 0.00 0.00 0.00 69 1019.2
20260905130007 15 218 3.2 4.8 0.00 0.00 0.00 70 1019.0
20260905130004 15 218 1.6 4.8 0.00 0.00 0.00 70 1001.7
20260905125505 15 218 3.2 6.4 0.00 0.00 0.00 71 1019.0
20260905125007 15 218 3.2 8.0 0.00 0.00 0.00 72 1018.9
20260905124505 15 237 3.2 8.0 0.00 0.00 0.00 73 1001.5
20260905124005 15 237 3.2 6.4 0.00 0.00 0.00 73 1018.8
20260905123011 15 237 3.2 11.3 0.00 0.00 0.00 73 1001.3
20260905123006 15 237 4.8 11.3 0.00 0.00 0.00 73 1018.7
20260905122505 15 196 3.2 12.9 0.00 0.00 0.00 74 1018.7
20260905122006 15 212 4.8 12.9 0.00 0.00 0.00 74 1018.6
20260905121505 15 206 6.4 11.3 0.00 0.00 0.00 75 1018.5
20260905121503 15 206 6.4 11.3 0.00 0.00 0.00 75 1001.1
20260905121006 15 215 3.2 9.7 0.00 0.00 0.00 75 1018.5
20260905120505 15 168 4.8 9.7 0.00 0.00 0.00 76 1018.4
20260905120007 15 199 4.8 11.3 0.00 0.00 0.00 77 1018.4
20260905120004 15 199 3.2 11.3 0.00 0.00 0.00 77 1000.9
20260905115505 15 200 6.4 11.3 0.00 0.00 0.00 78 1018.4
20260905115006 15 213 6.4 9.7 0.00 0.00 0.00 78 1018.4
20260905114505 15 221 4.8 8.0 0.00 0.00 0.00 78 1018.4
20260905114006 15 213 4.8 8.0 0.00 0.00 0.00 77 1018.5
20260905113505 15 252 3.2 8.0 0.00 0.00 0.00 76 1018.6
20260905113007 15 225 3.2 8.0 0.00 0.00 0.00 77 1018.6
20260905113003 15 225 3.2 8.0 0.00 0.00 0.00 77 1001.1
20260905112006 15 196 4.8 9.7 0.00 0.00 0.00 78 1018.6
20260905111505 15 217 4.8 9.7 0.00 0.00 0.00 79 1018.6
20260905111503 15 217 4.8 9.7 0.00 0.00 0.00 79 1001.2
20260905111006 15 212 4.8 8.0 0.00 0.00 0.00 79 1018.6
20260905110100 15 205 3.2 8.0 0.00 0.00 0.00 79 1001.3
20260905110001 15 205 4.8 8.0 0.00 0.00 0.00 79 1018.6
20260905105505 15 205 3.2 9.7 0.00 0.00 0.00 78 1018.6
20260905104503 15 230 1.6 9.7 0.00 0.00 0.00 78 1001.2
20260905104006 15 230 6.4 9.7 0.00 0.00 0.00 77 1018.5
20260905103006 15 203 4.8 9.7 0.00 0.00 0.00 78 1018.6
20260905103004 15 203 3.2 9.7 0.00 0.00 0.00 78 1001.2
20260905102505 15 189 4.8 9.7 0.00 0.00 0.00 78 1018.6
20260905102005 15 169 3.2 9.7 0.00 0.00 0.00 78 1018.7
20260905101506 15 198 4.8 11.3 0.00 0.00 0.00 79 1018.6
20260905101504 15 198 3.2 11.3 0.00 0.00 0.00 79 1001.3
20260905101006 15 195 4.8 12.9 0.00 0.00 0.00 79 1018.8
20260905100505 15 190 6.4 12.9 0.00 0.00 0.00 79 1018.7
20260905100007 15 188 8.0 12.9 0.00 0.00 0.00 78 1018.7
20260905100005 15 188 8.0 12.9 0.00 0.00 0.00 78 1001.4
20260905095505 15 212 3.2 12.9 0.00 0.00 0.00 78 1018.8
20260905095006 15 191 6.4 9.7 0.00 0.00 0.00 77 1018.8
20260905094504 15 181 6.4 11.3 0.00 0.00 0.00 77 1018.8
20260905094006 15 181 4.8 11.3 0.00 0.00 0.00 77 1018.8
20260905093505 14 169 6.4 8.0 0.00 0.00 0.00 77 1018.8
20260905093003 14 169 1.6 4.8 0.00 0.00 0.00 75 1001.5
20260905092007 15 169 1.6 6.4 0.00 0.00 0.00 73 1018.9
20260905091505 15 169 0.0 8.0 0.00 0.00 0.00 71 1019.0
20260905091503 15 169 0.0 8.0 0.00 0.00 0.00 71 1001.8
20260905091006 15 169 4.8 8.0 0.00 0.00 0.00 73 1018.9
20260905090506 15 169 3.2 6.4 0.00 0.00 0.00 72 1019.0
20260905090007 16 169 3.2 4.8 0.00 0.00 0.00 69 1019.1
20260905090004 16 169 1.6 4.8 0.00 0.00 0.00 69 1001.8
20260905085505 16 169 1.6 4.8 0.00 0.00 0.00 69 1019.1
20260905085006 16 169 3.2 6.4 0.00 0.00 0.00 68 1019.1
20260905084506 16 169 4.8 9.7 0.00 0.00 0.00 68 1019.0
20260905084503 16 169 3.2 9.7 0.00 0.00 0.00 68 1001.7
20260905083505 16 203 3.2 4.8 0.00 0.00 0.00 67 1019.1
20260905083006 17 203 1.6 6.4 0.00 0.00 0.00 66 1018.9
20260905082006 17 236 1.6 8.0 0.00 0.00 0.00 64 1019.0
20260905081505 17 190 3.2 8.0 0.00 0.00 0.00 62 1018.9
20260905081006 18 190 3.2 17.7 0.00 0.00 0.00 61 1018.8
20260905080505 18 175 9.7 29.0 0.00 0.00 0.00 60 1018.7
20260905080006 18 153 16.1 29.0 0.00 0.00 0.00 59 1018.6
20260905075505 18 156 17.7 30.6 0.00 0.00 0.00 59 1018.4
20260905075008 18 129 16.1 24.1 0.00 0.00 0.00 59 1018.5
20260905074628 19 124 16.1 24.1 0.00 0.00 0.00 58 1001.2
20260905074458 19 110 16.1 24.1 0.00 0.00 0.00 58 1018.4
20260905074006 18 183 9.7 17.7 0.00 0.00 0.00 59 1018.2
20260905073505 18 165 8.0 16.1 0.00 0.00 0.00 59 1018.2
20260905073006 19 187 4.8 16.1 0.00 0.00 0.00 57 1018.3
20260905073003 19 187 3.2 16.1 0.00 0.00 0.00 57 1000.9
20260905072505 20 213 6.4 16.1 0.00 0.00 0.00 56 1018.2
20260905072006 20 213 11.3 19.3 0.00 0.00 0.00 56 1018.2
20260905071504 20 209 9.7 22.5 0.00 0.00 0.00 55 1018.2
20260905071000 20 184 12.9 24.1 0.00 0.00 0.00 55 1018.1
20260905070505 20 173 12.9 24.1 0.00 0.00 0.00 55 1018.1
20260905070006 20 184 16.1 20.9 0.00 0.00 0.00 55 1018.2
20260905070003 20 184 14.5 20.9 0.00 0.00 0.00 55 1000.8
20260905065504 20 166 14.5 20.9 0.00 0.00 0.00 55 1018.2
20260905065006 20 185 14.5 27.4 0.00 0.00 0.00 55 1018.2
20260905064504 20 175 19.3 30.6 0.00 0.00 0.00 55 1018.2
20260905064005 20 157 19.3 32.2 0.00 0.00 0.00 55 1018.2
20260905063505 20 189 19.3 30.6 0.00 0.00 0.00 55 1018.2
20260905063007 20 164 19.3 32.2 0.00 0.00 0.00 56 1018.3
20260905063003 20 164 17.7 32.2 0.00 0.00 0.00 56 1000.9
20260905062505 20 148 16.1 25.7 0.00 0.00 0.00 56 1018.4
20260905062006 20 177 16.1 27.4 0.00 0.00 0.00 56 1018.4
20260905061505 20 161 16.1 29.0 0.00 0.00 0.00 56 1018.4
20260905061503 20 161 16.1 29.0 0.00 0.00 0.00 56 1001.1
20260905061005 20 153 14.5 20.9 0.00 0.00 0.00 56 1018.4
20260905060505 20 146 12.9 25.7 0.00 0.00 0.00 56 1018.4
20260905060009 20 150 12.9 25.7 0.00 0.00 0.00 55 1018.5
20260905060004 20 150 11.3 25.7 0.00 0.00 0.00 55 1001.1
20260905055504 20 165 16.1 27.4 0.00 0.00 0.00 54 1018.4
20260905055004 20 152 16.1 30.6 0.00 0.00 0.00 53 1018.4
20260905054510 20 156 17.7 33.8 0.00 0.00 0.00 53 1001.2
20260905054505 20 155 19.3 33.8 0.00 0.00 0.00 53 1018.6
20260905054005 20 158 17.7 25.7 0.00 0.00 0.00 53 1018.4
20260905053503 20 185 16.1 27.4 0.00 0.00 0.00 53 1018.4
20260905053007 20 163 17.7 29.0 0.00 0.00 0.00 53 1018.4
20260905053002 20 163 16.1 29.0 0.00 0.00 0.00 53 1000.9
20260905052503 20 165 16.1 25.7 0.00 0.00 0.00 53 1018.4
20260905052004 20 148 14.5 25.7 0.00 0.00 0.00 53 1018.4
20260905051502 20 188 16.1 24.1 0.00 0.00 0.00 53 1000.9
20260905051005 20 187 16.1 25.7 0.00 0.00 0.00 52 1018.4
20260905050503 21 169 16.1 29.0 0.00 0.00 0.00 51 1018.4
20260905050006 21 186 16.1 29.0 0.00 0.00 0.00 51 1018.4
20260905050002 21 186 14.5 29.0 0.00 0.00 0.00 51 1000.8
20260905045503 21 152 17.7 22.5 0.00 0.00 0.00 51 1018.4
20260905045005 21 157 16.1 20.9 0.00 0.00 0.00 50 1018.4
20260905044504 21 151 16.1 20.9 0.00 0.00 0.00 50 1018.4
20260905044006 21 150 16.1 19.3 0.00 0.00 0.00 50 1018.4
20260905043503 21 150 16.1 24.1 0.00 0.00 0.00 50 1018.5
20260905043002 21 144 14.5 24.1 0.00 0.00 0.00 50 1000.9
20260905042503 21 149 14.5 22.5 0.00 0.00 0.00 50 1018.6
20260905042004 21 146 14.5 22.5 0.00 0.00 0.00 50 1018.5
20260905041504 21 161 12.9 22.5 0.00 0.00 0.00 50 1018.5
20260905041004 21 171 14.5 19.3 0.00 0.00 0.00 49 1018.4
20260905040503 21 140 14.5 19.3 0.00 0.00 0.00 49 1018.5
20260905040007 21 147 14.5 22.5 0.00 0.00 0.00 49 1018.5
20260905040002 21 147 12.9 22.5 0.00 0.00 0.00 49 1000.9
20260905035504 21 162 16.1 19.3 0.00 0.00 0.00 48 1018.5
20260905035004 21 175 16.1 25.7 0.00 0.00 0.00 48 1018.6
20260905034503 22 172 16.1 25.7 0.00 0.00 0.00 47 1018.5
20260905033504 22 154 16.1 30.6 0.00 0.00 0.00 47 1018.5
20260905033004 22 156 16.1 24.1 0.00 0.00 0.00 47 1018.5
20260905033002 22 156 14.5 24.1 0.00 0.00 0.00 47 1000.9
20260905032506 22 162 16.1 25.7 0.00 0.00 0.00 47 1018.4
20260905032004 22 153 12.9 19.3 0.00 0.00 0.00 47 1018.4
20260905031508 22 151 11.3 17.7 0.00 0.00 0.00 47 1000.8
20260905031506 22 151 12.9 17.7 0.00 0.00 0.00 47 1018.4
20260905031006 22 160 6.4 14.5 0.00 0.00 0.00 48 1018.4
20260905030505 22 148 6.4 22.5 0.00 0.00 0.00 47 1018.4
20260905030008 22 154 12.9 30.6 0.00 0.00 0.00 45 1018.4
20260905030004 22 154 11.3 30.6 0.00 0.00 0.00 45 1000.8
20260905025006 23 167 19.3 27.4 0.00 0.00 0.00 41 1018.3
20260905024506 23 136 6.4 22.5 0.00 0.00 0.00 39 1018.4
20260905024504 23 136 4.8 22.5 0.00 0.00 0.00 39 1000.9
20260905024006 23 155 14.5 25.7 0.00 0.00 0.00 37 1018.4
20260905023505 23 148 12.9 17.7 0.00 0.00 0.00 38 1018.2
20260905023006 23 148 12.9 22.5 0.00 0.00 0.00 38 1018.2
20260905023004 23 148 11.3 22.5 0.00 0.00 0.00 38 1000.7
20260905022506 24 151 11.3 27.4 0.00 0.00 0.00 37 1018.2
20260905021506 23 157 9.7 16.1 0.00 0.00 0.00 39 1018.4
20260905021504 23 157 9.7 16.1 0.00 0.00 0.00 39 1000.8
20260905021006 22 177 4.8 9.7 0.00 0.00 0.00 38 1018.2
20260905020505 22 28 0.0 1.6 0.00 0.00 0.00 40 1018.1
20260905020010 22 28 0.0 1.6 0.00 0.00 0.00 45 1000.5
20260905020006 22 28 0.0 1.6 0.00 0.00 0.00 45 1018.0
20260905015505 23 28 0.0 4.8 0.00 0.00 0.00 44 1017.9
20260905015007 23 28 1.6 4.8 0.00 0.00 0.00 39 1017.8
20260905014505 23 28 3.2 6.4 0.00 0.00 0.00 39 1017.8
20260905013959 24 28 3.2 6.4 0.00 0.00 0.00 36 1017.8
20260905013007 24 163 6.4 11.3 0.00 0.00 0.00 34 1017.6
20260905013004 24 163 4.8 11.3 0.00 0.00 0.00 34 1000.1
20260905012506 24 150 6.4 12.9 0.00 0.00 0.00 34 1017.4
20260905012008 24 136 8.0 12.9 0.00 0.00 0.00 35 1017.2
20260905011511 23 133 8.0 12.9 0.00 0.00 0.00 35 999.6
20260905011007 24 130 9.7 12.9 0.00 0.00 0.00 35 1017.2
20260905010505 24 131 6.4 14.5 0.00 0.00 0.00 36 1017.2
20260905010008 24 139 9.7 17.7 0.00 0.00 0.00 35 1017.0
20260905010004 24 139 9.7 17.7 0.00 0.00 0.00 35 999.6
20260905005505 25 126 11.3 19.3 0.00 0.00 0.00 34 1017.0
20260905005008 25 124 14.5 20.9 0.00 0.00 0.00 32 1016.9
20260905004503 25 133 11.3 20.9 0.00 0.00 0.00 32 999.4
20260905004006 25 116 12.9 19.3 0.00 0.00 0.00 32 1016.9
20260905003506 26 125 11.3 19.3 0.00 0.00 0.00 31 1016.9
20260905003006 26 126 11.3 19.3 0.00 0.00 0.00 31 1017.0
20260905002004 26 101 12.9 20.9 0.00 0.00 0.00 30 1016.8
20260905001506 27 124 16.1 24.1 0.00 0.00 0.00 29 1016.8
20260905001504 27 124 14.5 24.1 0.00 0.00 0.00 29 999.4
20260905001007 27 98 16.1 30.6 0.00 0.00 0.00 29 1016.8